sat.trackr.live / text

‹ back to catalog

STARLINK-35492

NORAD 65926 · 2025-225S

PAYLOAD ACTIVE UNKNOWN

§ Identity

Operator
Country
US
Launch date
2025-10-08
Launch site
AFWTR
Launch vehicle
Mass (kg)
RCS (m²)

Purposes: comms

External: N2YO · Heavens-Above · Gunter

§ Orbital elements

Epoch: 2026-05-25T01:19:10.062048Z

Period
94.11 min
Inclination
53.1586°
Eccentricity
0.0000692
Mean motion
15.30202959 rev/d
Perigee alt
474.7 km
Apogee alt
475.7 km
Semi-major
6,853.3 km
B*
3.0299e-4
RAAN
170.7059°
Arg perigee
78.1242°
Mean anomaly
281.9836°
Rev number
3,610

§ Raw data

STARLINK-354921 65926U 25225S   26145.05497757  .00008626  00000+0  30299-3 0  99932 65926  53.1586 170.7059 0000692  78.1242 281.9836 15.30202959 36101

JSON: /api/v1/satellites/65926 · /tle

For live sub-satellite position, see the globe view (requires WebGL).

§ Visibility from observer

Set your observer location to see the next 7 days of passes ≥ 10°. The values pass through the URL so the page stays shareable.

No JS? Fill the form by hand. The geolocation button needs JavaScript.